User: anonymous   Login
Location: Fort Wayne
(41.1310°N, 85.1290°W)
Time: 11:33:10
(UTC-05:00)
Language:

BREEZE-M DEB (TANK) - Orbit

View from above orbital plane
View from above orbital plane
View from above satellite
View from above satellite

Ground track
Ground track

The orbit data is extracted from the following two-line orbital elements,

1 27821U 03024B   15059.71104825  .00007469  00000-0  92878-3 0  9990
2 27821 049.5856 301.5756 4992299 115.4606 333.8331 05.65492054232453
Epoch (UTC): 28 February 2015 17:03:54
Eccentricity: 0.4992299
inclination: 49.5856°
perigee height: 286 km
apogee height: 13574 km
right ascension of ascending node: 301.5756°
argument of perigee: 115.4606°
revolutions per day: 5.65492054
mean anomaly at epoch: 333.8331°
orbit number at epoch: 23245

The dashed part of the orbit path shows where the satellite is in the earth's shadow,  

DLR